Simultaneous Nadir Overpasses (SNOs) Predictions

Prediction of SNOs between GOES-17 and NOAA-19 Satellite Orbit:

Table of predicted SNOs for the next 14.0 days since TLE Epoch: 2/11/2023
Index Date Time (GOES-17) GOES-17 Lat,Lon NOAA-19 Lat,Lon Distance(km) Time Diff (sec)
1 02/11/2023 15:28:28 -0.00,-103.09 0.96,-107.28 477.82 80
2 02/12/2023 15:16:28 -0.00,-102.31 0.49,-104.32 230.07 80
3 02/13/2023 15:07:08 -0.00,-101.53 -0.05,-101.37 17.52 80
4 02/14/2023 14:55:08 -0.00,-100.74 -0.53, -98.42 265.10 80
5 02/18/2023 03:00:40 0.00, -97.94 -0.50,-100.19 256.93 80
6 02/19/2023 02:48:40 0.00, -97.15 -0.02, -97.24 9.38 80
7 02/20/2023 02:39:19 0.01, -96.37 0.46, -94.28 238.20 80
8 02/21/2023 02:27:20 0.01, -95.59 1.01, -91.34 486.08 80
9 02/23/2023 14:44:49 -0.00, -93.65 0.54, -96.05 272.70 80
10 02/24/2023 14:32:48 -0.00, -92.88 0.03, -93.09 24.26 80
